DAL8021 KDEN-KSLC

Flight info

Callsign DAL8021
Flight time 1h 5m
Altitude 34000
Route ZIMMR4 CHNGY EKR PITTT2
Aircraft A320/M-SDE3FGHIRWY/LB1

Departure

Time 2026-05-07 03:54
Airport Denver International Airport (KDEN)

Arrival

Time 2026-05-07 04:59
Airport Salt Lake City International Airport (KSLC)
Time Latitude Longitude Altitude Speed Heading
2026-05-07 03:15 39.85932 -104.67685 5381 ft 0 kts 180°
2026-05-07 03:37 39.85940 -104.67685 5377 ft 4 kts 180°
2026-05-07 03:37 39.85967 -104.67685 5376 ft 4 kts 180°
2026-05-07 03:37 39.85994 -104.67685 5374 ft 4 kts 180°
2026-05-07 03:37 39.86005 -104.67685 5376 ft 0 kts 180°
2026-05-07 03:43 39.86004 -104.67685 5378 ft 0 kts 180°
2026-05-07 03:43 39.85998 -104.67681 5378 ft 3 kts 155°
2026-05-07 03:43 39.85997 -104.67644 5378 ft 7 kts 67°
2026-05-07 03:43 39.86044 -104.67579 5374 ft 12 kts 41°
2026-05-07 03:44 39.86116 -104.67481 5376 ft 18 kts 55°
2026-05-07 03:44 39.86133 -104.67314 5375 ft 20 kts 90°
2026-05-07 03:44 39.86130 -104.67125 5377 ft 22 kts 90°
2026-05-07 03:44 39.86130 -104.66921 5379 ft 23 kts 90°
2026-05-07 03:45 39.86128 -104.66725 5381 ft 21 kts 90°
2026-05-07 03:45 39.86121 -104.66566 5383 ft 15 kts 102°
2026-05-07 03:45 39.86107 -104.66449 5389 ft 12 kts 91°
2026-05-07 03:45 39.86106 -104.66343 5395 ft 13 kts 91°
2026-05-07 03:46 39.86117 -104.66254 5396 ft 17 kts 57°
2026-05-07 03:46 39.86248 -104.66229 5395 ft 22 kts 359°
2026-05-07 03:46 39.86454 -104.66227 5393 ft 18 kts
2026-05-07 03:46 39.86499 -104.66101 5393 ft 18 kts 88°
2026-05-07 03:47 39.86499 -104.65930 5394 ft 20 kts 90°
2026-05-07 03:47 39.86499 -104.65806 5392 ft 22 kts 90°
2026-05-07 03:47 39.86495 -104.65611 5387 ft 20 kts 90°
2026-05-07 03:47 39.86494 -104.65432 5381 ft 20 kts 91°
2026-05-07 03:48 39.86493 -104.65268 5371 ft 18 kts 89°
2026-05-07 03:48 39.86493 -104.65084 5364 ft 20 kts 90°
2026-05-07 03:48 39.86492 -104.64917 5362 ft 18 kts 90°
2026-05-07 03:48 39.86491 -104.64729 5356 ft 23 kts 90°
2026-05-07 03:49 39.86490 -104.64526 5351 ft 18 kts 92°
2026-05-07 03:49 39.86487 -104.64400 5351 ft 13 kts 91°
2026-05-07 03:49 39.86486 -104.64289 5351 ft 5 kts 90°
2026-05-07 03:49 39.86486 -104.64288 5351 ft 0 kts 90°
2026-05-07 03:50 39.86486 -104.64260 5350 ft 6 kts 90°
2026-05-07 03:50 39.86482 -104.64178 5350 ft 12 kts 105°
2026-05-07 03:50 39.86420 -104.64133 5352 ft 0 kts 179°
2026-05-07 03:53 39.86361 -104.64134 5354 ft 34 kts 181°
2026-05-07 03:53 39.85878 -104.64139 5367 ft 101 kts 180°
2026-05-07 03:53 39.84989 -104.64151 5367 ft 155 kts 180°
2026-05-07 03:54 39.83797 -104.64176 5639 ft 178 kts 182°
2026-05-07 03:54 39.82645 -104.64694 6463 ft 179 kts 224°
2026-05-07 03:54 39.82166 -104.66136 7195 ft 177 kts 268°
2026-05-07 03:54 39.82514 -104.67710 7553 ft 192 kts 300°
2026-05-07 03:55 39.83280 -104.69267 7736 ft 215 kts 301°
2026-05-07 03:55 39.84117 -104.71012 7918 ft 239 kts 301°
2026-05-07 03:55 39.85033 -104.72947 8251 ft 262 kts 301°
2026-05-07 03:55 39.85991 -104.74976 8925 ft 268 kts 302°
2026-05-07 03:56 39.86964 -104.77050 9709 ft 271 kts 302°
2026-05-07 03:56 39.87941 -104.79145 9960 ft 269 kts 302°
2026-05-07 03:56 39.88947 -104.81301 10005 ft 293 kts 302°
2026-05-07 03:56 39.90053 -104.83665 10009 ft 307 kts 302°
2026-05-07 03:57 39.91166 -104.86044 10014 ft 314 kts 302°
2026-05-07 03:57 39.92286 -104.88447 10013 ft 314 kts 302°
2026-05-07 03:57 39.93243 -104.91143 10065 ft 343 kts 287°
2026-05-07 03:57 39.93661 -104.94245 10555 ft 355 kts 278°
2026-05-07 03:58 39.93783 -104.97513 11143 ft 363 kts 274°
2026-05-07 03:58 39.93760 -105.00827 11770 ft 368 kts 272°
2026-05-07 03:58 39.93702 -105.04142 12397 ft 372 kts 272°
2026-05-07 03:58 39.93669 -105.07521 13032 ft 375 kts 274°
2026-05-07 03:59 39.93679 -105.10945 13668 ft 379 kts 275°
2026-05-07 03:59 39.93726 -105.14395 14255 ft 382 kts 276°
2026-05-07 03:59 39.93799 -105.17872 14823 ft 385 kts 276°
2026-05-07 03:59 39.93888 -105.21378 15389 ft 389 kts 277°
2026-05-07 04:00 39.94042 -105.24912 15956 ft 391 kts 279°
2026-05-07 04:00 39.94294 -105.28449 16526 ft 393 kts 281°
2026-05-07 04:00 39.94599 -105.32004 16990 ft 397 kts 281°
2026-05-07 04:00 39.94926 -105.35602 17486 ft 400 kts 281°
2026-05-07 04:01 39.95246 -105.39175 18010 ft 404 kts 281°
2026-05-07 04:01 39.95559 -105.42833 18509 ft 407 kts 281°
2026-05-07 04:01 39.95860 -105.46511 18940 ft 410 kts 281°
2026-05-07 04:01 39.96152 -105.50229 19381 ft 413 kts 280°
2026-05-07 04:02 39.96439 -105.53970 19810 ft 416 kts 280°
2026-05-07 04:02 39.96727 -105.57742 20218 ft 418 kts 280°
2026-05-07 04:02 39.97014 -105.61530 20598 ft 421 kts 280°
2026-05-07 04:02 39.97296 -105.65295 20960 ft 423 kts 280°
2026-05-07 04:03 39.97561 -105.69134 21301 ft 426 kts 279°
2026-05-07 04:03 39.97776 -105.73005 21684 ft 430 kts 278°
2026-05-07 04:03 39.97959 -105.76917 22029 ft 433 kts 278°
2026-05-07 04:03 39.98132 -105.80849 22386 ft 436 kts 278°
2026-05-07 04:04 39.98307 -105.84813 22731 ft 438 kts 278°
2026-05-07 04:04 39.98488 -105.88793 23066 ft 441 kts 278°
2026-05-07 04:04 39.98679 -105.92801 23399 ft 443 kts 278°
2026-05-07 04:04 39.98876 -105.96824 23710 ft 446 kts 278°
2026-05-07 04:05 39.99076 -106.00823 23990 ft 448 kts 279°
2026-05-07 04:05 39.99279 -106.04884 24288 ft 449 kts 279°
2026-05-07 04:05 39.99475 -106.08955 24550 ft 451 kts 279°
2026-05-07 04:05 39.99667 -106.13050 24811 ft 452 kts 278°
2026-05-07 04:06 39.99856 -106.17145 25098 ft 452 kts 279°
2026-05-07 04:06 40.00046 -106.21242 25353 ft 453 kts 279°
2026-05-07 04:06 40.00239 -106.25357 25594 ft 455 kts 279°
2026-05-07 04:06 40.00431 -106.29483 25820 ft 456 kts 279°
2026-05-07 04:07 40.00622 -106.33632 26041 ft 458 kts 279°
2026-05-07 04:07 40.00811 -106.37774 26308 ft 457 kts 279°
2026-05-07 04:07 40.00996 -106.41911 26616 ft 456 kts 279°
2026-05-07 04:07 40.01175 -106.45988 26934 ft 455 kts 279°
2026-05-07 04:08 40.01353 -106.50120 27256 ft 455 kts 279°
2026-05-07 04:08 40.01531 -106.54241 27527 ft 454 kts 279°
2026-05-07 04:08 40.01711 -106.58365 27832 ft 454 kts 279°
2026-05-07 04:08 40.01891 -106.62476 28159 ft 453 kts 279°
2026-05-07 04:09 40.02069 -106.66583 28489 ft 452 kts 279°
2026-05-07 04:09 40.02242 -106.70628 28781 ft 452 kts 279°
2026-05-07 04:09 40.02415 -106.74720 29118 ft 451 kts 279°
2026-05-07 04:09 40.02585 -106.78801 29460 ft 450 kts 279°
2026-05-07 04:10 40.02753 -106.82863 29827 ft 449 kts 279°
2026-05-07 04:10 40.02918 -106.86932 30191 ft 448 kts 279°
2026-05-07 04:10 40.03082 -106.90989 30500 ft 447 kts 279°
2026-05-07 04:10 40.03245 -106.95044 30807 ft 446 kts 279°
2026-05-07 04:11 40.03403 -106.99087 31095 ft 445 kts 279°
2026-05-07 04:11 40.03560 -107.03060 31394 ft 443 kts 279°
2026-05-07 04:11 40.03719 -107.07076 31661 ft 443 kts 279°
2026-05-07 04:11 40.03877 -107.11090 31967 ft 442 kts 278°
2026-05-07 04:12 40.04033 -107.15087 32256 ft 441 kts 278°
2026-05-07 04:12 40.04186 -107.19079 32573 ft 440 kts 278°
2026-05-07 04:12 40.04336 -107.23060 32854 ft 438 kts 278°
2026-05-07 04:12 40.04483 -107.27031 33158 ft 437 kts 279°
2026-05-07 04:13 40.04631 -107.30998 33461 ft 436 kts 279°
2026-05-07 04:13 40.04780 -107.34950 33772 ft 435 kts 279°
2026-05-07 04:13 40.04928 -107.38896 34098 ft 434 kts 279°
2026-05-07 04:13 40.05072 -107.42827 34207 ft 434 kts 278°
2026-05-07 04:14 40.05215 -107.46735 34233 ft 438 kts 278°
2026-05-07 04:14 40.05500 -107.54746 34232 ft 440 kts 278°
2026-05-07 04:15 40.05768 -107.62682 34217 ft 440 kts 278°
2026-05-07 04:15 40.06037 -107.70675 34215 ft 440 kts 278°
2026-05-07 04:16 40.06301 -107.78661 34193 ft 440 kts 278°
2026-05-07 04:16 40.06556 -107.86639 34254 ft 440 kts 278°
2026-05-07 04:17 40.06814 -107.94615 34253 ft 439 kts 278°
2026-05-07 04:17 40.07168 -108.02583 34247 ft 439 kts 279°
2026-05-07 04:18 40.07566 -108.10474 34232 ft 439 kts 279°
2026-05-07 04:18 40.07942 -108.18438 34163 ft 439 kts 278°
2026-05-07 04:19 40.08287 -108.26416 34165 ft 439 kts 278°
2026-05-07 04:19 40.08620 -108.34344 34177 ft 439 kts 278°
2026-05-07 04:20 40.08958 -108.42301 34183 ft 438 kts 278°
2026-05-07 04:20 40.09295 -108.50267 34160 ft 438 kts 279°
2026-05-07 04:21 40.09789 -108.62174 33879 ft 437 kts 279°
2026-05-07 04:21 40.09948 -108.66148 32932 ft 439 kts 279°
2026-05-07 04:21 40.10108 -108.70149 32392 ft 441 kts 279°
2026-05-07 04:22 40.10270 -108.74178 32181 ft 445 kts 278°
2026-05-07 04:22 40.10429 -108.78218 32139 ft 447 kts 278°
2026-05-07 04:22 40.10735 -108.86340 32162 ft 448 kts 278°
2026-05-07 04:23 40.11041 -108.94429 32163 ft 448 kts 278°
2026-05-07 04:23 40.11352 -109.02564 32155 ft 448 kts 278°
2026-05-07 04:24 40.11656 -109.10710 32154 ft 448 kts 278°
2026-05-07 04:24 40.11952 -109.18868 32159 ft 449 kts 278°
2026-05-07 04:25 40.12233 -109.27021 32141 ft 449 kts 278°
2026-05-07 04:25 40.12505 -109.35167 32147 ft 449 kts 278°
2026-05-07 04:26 40.12779 -109.43255 32152 ft 447 kts 278°
2026-05-07 04:26 40.13059 -109.51377 32164 ft 447 kts 278°
2026-05-07 04:27 40.13329 -109.59502 32156 ft 447 kts 278°
2026-05-07 04:27 40.13588 -109.67629 32148 ft 447 kts 278°
2026-05-07 04:28 40.13837 -109.75767 32142 ft 447 kts 278°
2026-05-07 04:28 40.14082 -109.83887 32137 ft 448 kts 278°
2026-05-07 04:29 40.14320 -109.92028 32140 ft 448 kts 278°
2026-05-07 04:29 40.14556 -110.00118 32139 ft 448 kts 278°
2026-05-07 04:30 40.14784 -110.08258 32135 ft 448 kts 277°
2026-05-07 04:30 40.14959 -110.16414 32127 ft 449 kts 276°
2026-05-07 04:31 40.14909 -110.24611 32142 ft 451 kts 274°
2026-05-07 04:31 40.14778 -110.32769 32141 ft 451 kts 274°
2026-05-07 04:32 40.14670 -110.40974 32144 ft 451 kts 275°
2026-05-07 04:32 40.14599 -110.47778 32122 ft 450 kts 275°
2026-05-07 04:33 40.14512 -110.57286 32150 ft 450 kts 275°
2026-05-07 04:33 40.14444 -110.64084 32160 ft 450 kts 275°
2026-05-07 04:34 40.14352 -110.72263 32159 ft 450 kts 275°
2026-05-07 04:34 40.14245 -110.80457 31917 ft 450 kts 274°
2026-05-07 04:35 40.14190 -110.84558 31642 ft 451 kts 274°
2026-05-07 04:35 40.14135 -110.88666 31407 ft 452 kts 274°
2026-05-07 04:35 40.14080 -110.92780 30710 ft 452 kts 274°
2026-05-07 04:35 40.14024 -110.96922 29441 ft 458 kts 274°
2026-05-07 04:36 40.13968 -111.01037 28323 ft 459 kts 274°
2026-05-07 04:36 40.13908 -111.05225 27132 ft 461 kts 274°
2026-05-07 04:36 40.13845 -111.09438 25914 ft 464 kts 274°
2026-05-07 04:36 40.13780 -111.13665 24732 ft 466 kts 273°
2026-05-07 04:37 40.13711 -111.17905 23551 ft 467 kts 273°
2026-05-07 04:37 40.13640 -111.22152 22490 ft 465 kts 273°
2026-05-07 04:37 40.13566 -111.26344 21637 ft 459 kts 272°
2026-05-07 04:37 40.13493 -111.30490 20766 ft 454 kts 272°
2026-05-07 04:38 40.13419 -111.34605 19938 ft 451 kts 272°
2026-05-07 04:38 40.13345 -111.38637 19706 ft 434 kts 272°
2026-05-07 04:38 40.13268 -111.42503 19572 ft 417 kts 272°
2026-05-07 04:38 40.13194 -111.46168 19452 ft 401 kts 272°
2026-05-07 04:39 40.13123 -111.49792 19330 ft 386 kts 273°
2026-05-07 04:39 40.13183 -111.53184 19168 ft 371 kts 282°
2026-05-07 04:39 40.13740 -111.56396 19043 ft 359 kts 293°
2026-05-07 04:39 40.14724 -111.59358 18975 ft 354 kts 300°
2026-05-07 04:40 40.15805 -111.62259 18846 ft 353 kts 300°
2026-05-07 04:40 40.16874 -111.65152 18696 ft 353 kts 300°
2026-05-07 04:40 40.17938 -111.68040 18506 ft 353 kts 300°
2026-05-07 04:40 40.19003 -111.70935 18251 ft 350 kts 300°
2026-05-07 04:41 40.20059 -111.73802 18064 ft 350 kts 300°
2026-05-07 04:41 40.21112 -111.76672 17908 ft 349 kts 299°
2026-05-07 04:41 40.22158 -111.79527 17764 ft 348 kts 299°
2026-05-07 04:41 40.23195 -111.82349 17619 ft 347 kts 298°
2026-05-07 04:42 40.24242 -111.85193 17475 ft 346 kts 298°
2026-05-07 04:42 40.25286 -111.88034 17321 ft 346 kts 298°
2026-05-07 04:42 40.26343 -111.90864 17161 ft 344 kts 302°
2026-05-07 04:42 40.27714 -111.93411 17025 ft 340 kts 314°
2026-05-07 04:43 40.29454 -111.95470 16740 ft 335 kts 326°
2026-05-07 04:43 40.31442 -111.97042 16447 ft 333 kts 331°
2026-05-07 04:43 40.33452 -111.98548 16162 ft 332 kts 331°
2026-05-07 04:43 40.35425 -112.00035 15880 ft 331 kts 331°
2026-05-07 04:44 40.37421 -112.01542 15601 ft 330 kts 331°
2026-05-07 04:44 40.39406 -112.03044 15332 ft 329 kts 331°
2026-05-07 04:44 40.41445 -112.04407 15056 ft 327 kts 340°
2026-05-07 04:44 40.43635 -112.05182 14766 ft 325 kts 351°
2026-05-07 04:45 40.45883 -112.05489 14457 ft 324 kts 354°
2026-05-07 04:45 40.48102 -112.05776 14154 ft 324 kts 354°
2026-05-07 04:45 40.50341 -112.06071 13824 ft 323 kts 354°
2026-05-07 04:45 40.52579 -112.06368 13517 ft 322 kts 354°
2026-05-07 04:46 40.54808 -112.06662 13222 ft 321 kts 353°
2026-05-07 04:46 40.57030 -112.06959 12903 ft 320 kts 353°
2026-05-07 04:46 40.59243 -112.07254 12596 ft 319 kts 353°
2026-05-07 04:46 40.61448 -112.07551 12284 ft 318 kts 353°
2026-05-07 04:47 40.63651 -112.07848 11983 ft 317 kts 353°
2026-05-07 04:47 40.65844 -112.08124 11890 ft 317 kts 354°
2026-05-07 04:47 40.68014 -112.08380 11785 ft 317 kts 354°
2026-05-07 04:47 40.70210 -112.08628 11667 ft 317 kts 354°
2026-05-07 04:48 40.72406 -112.08877 11546 ft 315 kts 354°
2026-05-07 04:48 40.74552 -112.09118 11412 ft 303 kts 354°
2026-05-07 04:48 40.76619 -112.09355 11278 ft 292 kts 353°
2026-05-07 04:48 40.78610 -112.09591 11115 ft 283 kts 353°
2026-05-07 04:49 40.80563 -112.09826 10999 ft 280 kts 353°
2026-05-07 04:49 40.82505 -112.10062 11004 ft 280 kts 353°
2026-05-07 04:49 40.84500 -112.10253 10815 ft 295 kts 355°
2026-05-07 04:49 40.86594 -112.10383 10175 ft 303 kts 355°
2026-05-07 04:50 40.88627 -112.10474 10058 ft 291 kts 355°
2026-05-07 04:50 40.90570 -112.10556 9924 ft 280 kts 356°
2026-05-07 04:50 40.92186 -112.10622 9813 ft 270 kts 355°
2026-05-07 04:50 40.94030 -112.10697 9669 ft 260 kts 355°
2026-05-07 04:51 40.95804 -112.10766 9535 ft 250 kts 355°
2026-05-07 04:51 40.97509 -112.10827 9409 ft 240 kts 355°
2026-05-07 04:51 40.99151 -112.10883 9217 ft 233 kts 356°
2026-05-07 04:51 41.00758 -112.10944 9023 ft 229 kts 355°
2026-05-07 04:52 41.02361 -112.11010 8983 ft 232 kts 355°
2026-05-07 04:52 41.03953 -112.11037 8989 ft 233 kts
2026-05-07 04:52 41.05469 -112.10289 8915 ft 238 kts 34°
2026-05-07 04:52 41.06512 -112.08583 8516 ft 244 kts 66°
2026-05-07 04:53 41.06912 -112.06386 8137 ft 247 kts 85°
2026-05-07 04:53 41.06590 -112.04216 8001 ft 240 kts 120°
2026-05-07 04:53 41.05505 -112.02508 8007 ft 245 kts 138°
2026-05-07 04:53 41.04209 -112.01080 8005 ft 236 kts 149°
2026-05-07 04:54 41.02752 -112.00296 8023 ft 217 kts 171°
2026-05-07 04:54 41.01325 -112.00086 7991 ft 197 kts 178°
2026-05-07 04:54 41.00021 -111.99936 7927 ft 181 kts 176°
2026-05-07 04:54 40.98790 -111.99794 7736 ft 174 kts 176°
2026-05-07 04:55 40.97606 -111.99657 7516 ft 167 kts 176°
2026-05-07 04:55 40.96458 -111.99523 7321 ft 164 kts 177°
2026-05-07 04:55 40.95331 -111.99392 7145 ft 160 kts 175°
2026-05-07 04:55 40.94227 -111.99263 6923 ft 157 kts 175°
2026-05-07 04:56 40.93156 -111.99138 6733 ft 154 kts 175°
2026-05-07 04:56 40.92109 -111.99017 6540 ft 152 kts 174°
2026-05-07 04:56 40.91057 -111.98894 6349 ft 152 kts 174°
2026-05-07 04:56 40.90006 -111.98771 6152 ft 151 kts 175°
2026-05-07 04:57 40.88964 -111.98650 5956 ft 150 kts 175°
2026-05-07 04:57 40.87930 -111.98530 5758 ft 149 kts 174°
2026-05-07 04:57 40.86899 -111.98410 5556 ft 147 kts 174°
2026-05-07 04:57 40.85869 -111.98294 5344 ft 149 kts 174°
2026-05-07 04:58 40.84838 -111.98204 5187 ft 149 kts 174°
2026-05-07 04:58 40.83814 -111.98077 4896 ft 148 kts 174°
2026-05-07 04:58 40.82811 -111.97950 4685 ft 146 kts 174°
2026-05-07 04:58 40.81794 -111.97824 4478 ft 146 kts 170°
2026-05-07 04:59 40.80811 -111.97709 4318 ft 142 kts 171°
2026-05-07 04:59 40.79854 -111.97606 4236 ft 129 kts 169°
2026-05-07 04:59 40.79104 -111.97505 4232 ft 84 kts 175°
2026-05-07 04:59 40.78689 -111.97456 4231 ft 41 kts 175°
2026-05-07 05:00 40.78422 -111.97429 4231 ft 37 kts 174°
2026-05-07 05:00 40.78181 -111.97425 4230 ft 33 kts 194°
2026-05-07 05:00 40.78047 -111.97536 4242 ft 17 kts 270°
2026-05-07 05:00 40.78127 -111.97609 4260 ft 15 kts 353°
2026-05-07 05:01 40.78221 -111.97620 4230 ft 14 kts 355°
2026-05-07 05:01 40.78346 -111.97632 4230 ft 22 kts 356°
2026-05-07 05:01 40.78511 -111.97655 4231 ft 25 kts 354°
2026-05-07 05:01 40.78690 -111.97673 4231 ft 27 kts 356°
2026-05-07 05:02 40.78831 -111.97727 4231 ft 17 kts 291°
2026-05-07 05:02 40.78819 -111.97894 4231 ft 20 kts 258°
2026-05-07 05:02 40.78775 -111.98070 4231 ft 22 kts 236°
2026-05-07 05:02 40.78721 -111.98260 4231 ft 24 kts 265°
2026-05-07 05:03 40.78706 -111.98485 4231 ft 26 kts 265°
2026-05-07 05:03 40.78689 -111.98736 4231 ft 29 kts 265°
2026-05-07 05:03 40.78675 -111.98936 4231 ft 12 kts 266°
2026-05-07 05:03 40.78638 -111.98954 4231 ft 7 kts 175°
2026-05-07 05:04 40.78608 -111.98952 4231 ft 3 kts 175°
2026-05-07 05:04 40.78599 -111.98950 4231 ft 1 kts 175°
2026-05-07 05:04 40.78598 -111.98950 4231 ft 0 kts 175°